| time (UTC) | temp C | wind direction | speed KPH | gust KPH | rain 1hr cm | rain 24hr cm | rain mn cm | humidity % | barometer mb |
| 20260504130317 | 12 | 248 | 1.6 | 1.6 | 0.00 | 0.00 | 0.00 | 55 | 1013.0 |
| 20260504120317 | 10 | 90 | 1.6 | 1.6 | 0.00 | 0.00 | 0.00 | 57 | 1013.5 |
| 20260504110337 | 5 | 0.0 | 0.0 | 0.00 | 0.00 | 0.00 | 74 | 1013.2 | |
| 20260504100317 | 3 | 0.0 | 0.0 | 0.00 | 0.00 | 0.00 | 77 | 1013.5 | |
| 20260504081317 | 3 | 0.0 | 0.0 | 0.00 | 0.00 | 0.00 | 75 | 1013.8 | |
| 20260504080337 | 3 | 0.0 | 0.0 | 0.00 | 0.00 | 0.00 | 73 | 1013.7 | |
| 20260504070317 | 6 | 0.0 | 0.0 | 0.00 | 0.00 | 0.00 | 67 | 1013.7 | |
| 20260504050357 | 6 | 0.0 | 0.0 | 0.00 | 0.00 | 0.00 | 67 | 1013.8 | |
| 20260504045317 | 6 | 0.0 | 1.6 | 0.00 | 0.00 | 0.00 | 67 | 1013.9 | |
| 20260504044337 | 6 | 0.0 | 0.0 | 0.00 | 0.00 | 0.00 | 67 | 1014.0 | |
| 20260504043317 | 6 | 0.0 | 0.0 | 0.00 | 0.00 | 0.00 | 67 | 1013.9 | |
| 20260504042317 | 6 | 0.0 | 0.0 | 0.00 | 0.00 | 0.00 | 67 | 1014.0 | |
| 20260504041317 | 6 | 0.0 | 0.0 | 0.00 | 0.00 | 0.00 | 66 | 1014.0 | |
| 20260504040316 | 6 | 0.0 | 0.0 | 0.00 | 0.00 | 0.00 | 65 | 1014.0 | |
| 20260504035316 | 6 | 0.0 | 0.0 | 0.00 | 0.00 | 0.00 | 64 | 1014.0 | |
| 20260504034337 | 7 | 0.0 | 1.6 | 0.00 | 0.00 | 0.00 | 64 | 1013.9 | |
| 20260504033317 | 6 | 0.0 | 1.6 | 0.00 | 0.00 | 0.00 | 65 | 1013.8 | |
| 20260504032317 | 6 | 0.0 | 0.0 | 0.00 | 0.00 | 0.00 | 65 | 1013.8 | |
| 20260504031317 | 6 | 0.0 | 0.0 | 0.00 | 0.00 | 0.00 | 64 | 1013.7 | |
| 20260504030418 | 7 | 0.0 | 0.0 | 0.00 | 0.00 | 0.00 | 64 | 1013.6 | |
| 20260504025317 | 7 | 0.0 | 0.0 | 0.00 | 0.00 | 0.00 | 64 | 1013.5 | |
| 20260504024317 | 7 | 0.0 | 0.0 | 0.00 | 0.00 | 0.00 | 64 | 1013.5 | |
| 20260504023317 | 7 | 0.0 | 0.0 | 0.00 | 0.00 | 0.00 | 62 | 1013.6 | |
| 20260504022317 | 7 | 0.0 | 0.0 | 0.00 | 0.00 | 0.00 | 62 | 1013.5 | |
| 20260504021317 | 7 | 0.0 | 0.0 | 0.00 | 0.00 | 0.00 | 60 | 1013.4 | |
| 20260504020317 | 8 | 0.0 | 0.0 | 0.00 | 0.00 | 0.00 | 56 | 1013.4 | |
| 20260504015317 | 8 | 0.0 | 0.0 | 0.00 | 0.00 | 0.00 | 56 | 1013.4 | |
| 20260504014317 | 8 | 0.0 | 0.0 | 0.00 | 0.00 | 0.00 | 54 | 1013.4 | |
| 20260504013316 | 9 | 0.0 | 0.0 | 0.00 | 0.00 | 0.00 | 51 | 1013.4 | |
| 20260504012317 | 9 | 0.0 | 1.6 | 0.00 | 0.00 | 0.00 | 52 | 1013.3 | |
| 20260504011316 | 8 | 0.0 | 0.0 | 0.00 | 0.00 | 0.00 | 53 | 1013.2 | |
| 20260504010317 | 9 | 0.0 | 0.0 | 0.00 | 0.00 | 0.00 | 53 | 1013.2 | |
| 20260504005336 | 9 | 0.0 | 0.0 | 0.00 | 0.00 | 0.00 | 53 | 1013.1 | |
| 20260504004317 | 10 | 0.0 | 0.0 | 0.00 | 0.00 | 0.00 | 51 | 1013.0 | |
| 20260504003317 | 10 | 0.0 | 0.0 | 0.00 | 0.00 | 0.00 | 50 | 1013.0 | |
| 20260504002317 | 11 | 0.0 | 0.0 | 0.00 | 0.00 | 0.00 | 46 | 1012.9 | |
| 20260504001317 | 12 | 0.0 | 0.0 | 0.00 | 0.00 | 0.00 | 42 | 1012.9 | |
| 20260504000336 | 13 | 0.0 | 0.0 | 0.00 | 0.00 | 0.00 | 40 | 1012.9 | |
| 20260503235316 | 13 | 248 | 3.2 | 4.8 | 0.00 | 0.00 | 0.00 | 37 | 1012.7 |
| 20260503234317 | 14 | 248 | 3.2 | 4.8 | 0.00 | 0.00 | 0.00 | 36 | 1012.7 |
| 20260503233316 | 14 | 270 | 1.6 | 3.2 | 0.00 | 0.00 | 0.00 | 35 | 1012.5 |
| 20260503232337 | 15 | 293 | 1.6 | 3.2 | 0.00 | 0.00 | 0.00 | 34 | 1012.4 |
| 20260503231317 | 15 | 315 | 3.2 | 6.4 | 0.00 | 0.00 | 0.00 | 33 | 1012.4 |
| 20260503230317 | 15 | 293 | 3.2 | 4.8 | 0.00 | 0.00 | 0.00 | 33 | 1012.4 |
| 20260503225317 | 15 | 293 | 6.4 | 8.0 | 0.00 | 0.00 | 0.00 | 32 | 1012.4 |
| 20260503224317 | 15 | 293 | 3.2 | 4.8 | 0.00 | 0.00 | 0.00 | 33 | 1012.4 |
| 20260503223316 | 15 | 315 | 4.8 | 9.7 | 0.00 | 0.00 | 0.00 | 32 | 1012.4 |
| 20260503222317 | 15 | 315 | 9.7 | 14.5 | 0.00 | 0.00 | 0.00 | 32 | 1012.4 |
| 20260503221317 | 15 | 315 | 6.4 | 11.3 | 0.00 | 0.00 | 0.00 | 33 | 1012.5 |
| 20260503220357 | 15 | 270 | 3.2 | 8.0 | 0.00 | 0.00 | 0.00 | 33 | 1012.7 |
| 20260503215317 | 16 | 270 | 8.0 | 11.3 | 0.00 | 0.00 | 0.00 | 33 | 1012.6 |
| 20260503214317 | 16 | 293 | 8.0 | 12.9 | 0.00 | 0.00 | 0.00 | 33 | 1012.6 |
| 20260503213317 | 15 | 293 | 8.0 | 12.9 | 0.00 | 0.00 | 0.00 | 33 | 1012.5 |
| 20260503212317 | 15 | 270 | 4.8 | 9.7 | 0.00 | 0.00 | 0.00 | 33 | 1012.6 |
| 20260503211317 | 15 | 270 | 6.4 | 9.7 | 0.00 | 0.00 | 0.00 | 33 | 1012.6 |
| 20260503210317 | 15 | 293 | 11.3 | 17.7 | 0.00 | 0.00 | 0.00 | 31 | 1012.6 |
| 20260503205316 | 15 | 315 | 6.4 | 14.5 | 0.00 | 0.00 | 0.00 | 35 | 1012.7 |
| 20260503204317 | 15 | 293 | 9.7 | 14.5 | 0.00 | 0.00 | 0.00 | 33 | 1012.8 |
| 20260503203317 | 15 | 293 | 12.9 | 17.7 | 0.00 | 0.00 | 0.00 | 33 | 1012.8 |
| 20260503202317 | 15 | 315 | 4.8 | 9.7 | 0.00 | 0.00 | 0.00 | 34 | 1012.9 |
| 20260503201317 | 15 | 293 | 9.7 | 14.5 | 0.00 | 0.00 | 0.00 | 35 | 1012.9 |
| 20260503200317 | 15 | 293 | 8.0 | 12.9 | 0.00 | 0.00 | 0.00 | 36 | 1013.1 |
| 20260503195317 | 14 | 293 | 12.9 | 19.3 | 0.00 | 0.00 | 0.00 | 34 | 1013.2 |
| 20260503194316 | 14 | 270 | 4.8 | 11.3 | 0.00 | 0.00 | 0.00 | 36 | 1013.3 |
| 20260503193318 | 15 | 293 | 9.7 | 12.9 | 0.00 | 0.00 | 0.00 | 33 | 1013.5 |
| 20260503192317 | 15 | 293 | 8.0 | 16.1 | 0.00 | 0.00 | 0.00 | 34 | 1013.4 |
| 20260503191317 | 14 | 293 | 9.7 | 17.7 | 0.00 | 0.00 | 0.00 | 34 | 1013.5 |
| 20260503190317 | 13 | 293 | 6.4 | 11.3 | 0.00 | 0.00 | 0.00 | 34 | 1013.5 |
| 20260503185317 | 13 | 270 | 8.0 | 12.9 | 0.00 | 0.00 | 0.00 | 35 | 1013.8 |
| 20260503184317 | 14 | 45 | 9.7 | 19.3 | 0.00 | 0.00 | 0.00 | 33 | 1013.9 |
| 20260503183317 | 14 | 270 | 8.0 | 12.9 | 0.00 | 0.00 | 0.00 | 34 | 1013.9 |
| 20260503182317 | 14 | 293 | 9.7 | 20.9 | 0.00 | 0.00 | 0.00 | 34 | 1013.7 |
| 20260503181337 | 13 | 270 | 6.4 | 9.7 | 0.00 | 0.00 | 0.00 | 31 | 1013.9 |
| 20260503180337 | 13 | 293 | 8.0 | 11.3 | 0.00 | 0.00 | 0.00 | 34 | 1014.0 |
| 20260503175317 | 13 | 293 | 8.0 | 11.3 | 0.00 | 0.00 | 0.00 | 34 | 1014.0 |
| 20260503174317 | 13 | 248 | 11.3 | 17.7 | 0.00 | 0.00 | 0.00 | 34 | 1014.2 |
| 20260503173317 | 13 | 315 | 11.3 | 19.3 | 0.00 | 0.00 | 0.00 | 34 | 1014.1 |
| 20260503172317 | 12 | 270 | 4.8 | 8.0 | 0.00 | 0.00 | 0.00 | 38 | 1014.3 |
| 20260503171357 | 12 | 270 | 8.0 | 19.3 | 0.00 | 0.00 | 0.00 | 36 | 1014.2 |
| 20260503170317 | 12 | 225 | 6.4 | 12.9 | 0.00 | 0.00 | 0.00 | 38 | 1014.4 |
| 20260503150337 | 10 | 293 | 9.7 | 14.5 | 0.00 | 0.00 | 0.00 | 40 | 1015.4 |